Location: Clarks Summit,Pa.
(41.5000°N, 75.6000°W)
Time: 01:58:00
(UTC-04:00)

Tiangong 2 - Visible Passes

Search period start: 19 March 2019 00:00
Search period end: 29 March 2019 00:00
Orbit: 379 x 390 km, 42.8° (Epoch: 18 March)

Date Brightness Start Highest point End Pass type
(mag) Time Alt. Az. Time Alt. Az. Time Alt. Az.
19 Mar 2.6 05:04:58 37° ENE 05:04:58 37° ENE 05:07:05 10° E visible
19 Mar 1.3 06:37:32 10° W 06:40:40 55° SSW 06:43:47 10° ESE visible
20 Mar 0.9 05:40:31 50° W 05:41:14 82° SSW 05:44:24 10° ESE visible
21 Mar 3.8 04:43:55 19° E 04:43:55 19° E 04:44:55 10° E visible
21 Mar 1.9 06:16:09 15° W 06:18:22 34° SSW 06:21:18 10° SE visible
22 Mar 1.8 05:19:39 43° SSE 05:19:39 43° SSE 05:22:05 10° ESE visible
23 Mar 2.5 05:55:31 20° SW 05:55:59 21° SSW 05:58:28 10° SSE visible
24 Mar 3.9 04:59:18 11° SE 04:59:18 11° SE 04:59:32 10° SE visible
